Time,TemperatureF,DewpointF,PressureIn,WindDirection,WindDirectionDegrees,WindSpeedMPH,WindSpeedGustMPH,Humidity,HourlyPrecipIn,Conditions,Clouds,dailyrainin,SolarRadiationWatts/m^2,SoftwareType,DateUTC
2013-06-16 00:01:00,67.0,67.0,-100.00,SSE,165,6.0,12.0,99,0.01,,,0.57,0.000000,,2013-06-16 05:01:00,
2013-06-16 00:12:00,67.0,67.0,-100.00,SSE,165,6.0,12.0,99,0.01,,,0.57,0.000000,,2013-06-16 05:12:00,
2013-06-16 00:34:00,67.0,66.0,-100.00,SSW,210,3.0,9.0,97,0.00,,,0.57,0.000000,,2013-06-16 05:34:00,
2013-06-16 00:43:00,67.0,66.0,-100.00,SSW,210,3.0,9.0,97,0.00,,,0.57,0.000000,,2013-06-16 05:43:00,
2013-06-16 00:52:00,67.0,66.0,-100.00,SSW,210,3.0,9.0,97,0.00,,,0.57,0.000000,,2013-06-16 05:52:00,
2013-06-16 01:01:00,67.0,66.0,-100.00,SSW,210,3.0,9.0,97,0.00,,,0.57,0.000000,,2013-06-16 06:01:00,
2013-06-16 01:11:00,67.0,66.0,-100.00,SSW,210,3.0,9.0,97,0.00,,,0.57,0.000000,,2013-06-16 06:11:00,
2013-06-16 01:33:00,67.0,66.0,-100.00,SE,146,3.0,5.0,98,0.00,,,0.57,0.000000,,2013-06-16 06:33:00,
2013-06-16 01:43:00,67.0,66.0,-100.00,SE,146,3.0,5.0,98,0.00,,,0.57,0.000000,,2013-06-16 06:43:00,
2013-06-16 01:52:00,67.0,66.0,-100.00,SE,146,3.0,5.0,98,0.00,,,0.57,0.000000,,2013-06-16 06:52:00,
2013-06-16 02:01:00,67.0,66.0,-100.00,SE,146,3.0,5.0,98,0.00,,,0.57,0.000000,,2013-06-16 07:01:00,
2013-06-16 02:11:00,67.0,66.0,-100.00,SE,146,3.0,5.0,98,0.00,,,0.57,0.000000,,2013-06-16 07:11:00,
2013-06-16 02:33:00,67.0,66.0,-100.00,ESE,113,1.0,5.0,98,0.00,,,0.57,0.000000,,2013-06-16 07:33:00,
2013-06-16 02:43:00,67.0,66.0,-100.00,ESE,113,1.0,5.0,98,0.00,,,0.57,0.000000,,2013-06-16 07:43:00,
2013-06-16 02:53:00,67.0,66.0,-100.00,ESE,113,1.0,5.0,98,0.00,,,0.57,0.000000,,2013-06-16 07:53:00,
2013-06-16 03:02:00,67.0,66.0,-100.00,ESE,113,1.0,5.0,98,0.00,,,0.57,0.000000,,2013-06-16 08:02:00,
2013-06-16 03:12:00,67.0,66.0,-100.00,ESE,113,1.0,5.0,98,0.00,,,0.57,0.000000,,2013-06-16 08:12:00,
2013-06-16 03:34:00,67.0,66.0,-100.00,ENE,61,3.0,7.0,98,0.01,,,-99.99,0.000000,,2013-06-16 08:34:00,
2013-06-16 03:43:00,67.0,66.0,-100.00,ENE,61,3.0,7.0,98,0.01,,,-99.99,0.000000,,2013-06-16 08:43:00,
2013-06-16 03:54:00,67.0,66.0,-100.00,ENE,61,3.0,7.0,98,0.01,,,-99.99,0.000000,,2013-06-16 08:54:00,
2013-06-16 04:02:00,67.0,66.0,-100.00,ENE,61,3.0,7.0,98,0.01,,,-99.99,0.000000,,2013-06-16 09:02:00,
2013-06-16 04:11:00,67.0,66.0,-100.00,ENE,61,3.0,7.0,98,0.01,,,-99.99,0.000000,,2013-06-16 09:11:00,
2013-06-16 04:33:00,67.0,67.0,-100.00,ESE,113,3.0,10.0,99,0.00,,,0.58,0.000000,,2013-06-16 09:33:00,
2013-06-16 04:43:00,67.0,67.0,-100.00,ESE,113,3.0,10.0,99,0.00,,,0.58,0.000000,,2013-06-16 09:43:00,
2013-06-16 04:52:00,67.0,67.0,-100.00,ESE,113,3.0,10.0,99,0.00,,,0.58,0.000000,,2013-06-16 09:52:00,
2013-06-16 05:02:00,67.0,67.0,-100.00,ESE,113,3.0,10.0,99,0.00,,,0.58,0.000000,,2013-06-16 10:02:00,
2013-06-16 05:12:00,67.0,67.0,-100.00,ESE,113,3.0,10.0,99,0.00,,,0.58,0.000000,,2013-06-16 10:12:00,
2013-06-16 05:33:00,67.0,67.0,-100.00,SW,219,1.0,7.0,99,0.00,,,0.58,0.000000,,2013-06-16 10:33:00,
2013-06-16 05:43:00,67.0,67.0,-100.00,SW,219,1.0,7.0,99,0.00,,,0.58,0.000000,,2013-06-16 10:43:00,
2013-06-16 05:54:00,67.0,67.0,-100.00,SW,219,1.0,7.0,99,0.00,,,0.58,0.000000,,2013-06-16 10:54:00,
2013-06-16 06:02:00,67.0,67.0,-100.00,SW,219,1.0,7.0,99,0.00,,,0.58,0.000000,,2013-06-16 11:02:00,
2013-06-16 06:11:00,67.0,67.0,-100.00,SW,219,1.0,7.0,99,0.00,,,0.58,0.000000,,2013-06-16 11:11:00,
2013-06-16 06:34:00,67.0,67.0,-100.00,ENE,69,3.0,6.0,99,0.00,,,0.58,0.000000,,2013-06-16 11:34:00,
2013-06-16 06:43:00,67.0,67.0,-100.00,ENE,69,3.0,6.0,99,0.00,,,0.58,0.000000,,2013-06-16 11:43:00,
2013-06-16 06:53:00,67.0,67.0,-100.00,ENE,69,3.0,6.0,99,0.00,,,0.58,0.000000,,2013-06-16 11:53:00,
2013-06-16 07:02:00,67.0,67.0,-100.00,ENE,69,3.0,6.0,99,0.00,,,0.58,0.000000,,2013-06-16 12:02:00,
2013-06-16 07:12:00,67.0,67.0,-100.00,ENE,69,3.0,6.0,99,0.00,,,0.58,0.000000,,2013-06-16 12:12:00,
2013-06-16 07:33:00,67.0,67.0,-100.00,SSE,162,3.0,7.0,99,0.00,,,0.57,29.000000,,2013-06-16 12:33:00,
2013-06-16 07:43:00,67.0,67.0,-100.00,SSE,162,3.0,7.0,99,0.00,,,0.57,29.000000,,2013-06-16 12:43:00,
2013-06-16 07:53:00,67.0,67.0,-100.00,SSE,162,3.0,7.0,99,0.00,,,0.57,29.000000,,2013-06-16 12:53:00,
2013-06-16 08:01:00,67.0,67.0,-100.00,SSE,162,3.0,7.0,99,0.00,,,0.57,29.000000,,2013-06-16 13:01:00,
2013-06-16 08:11:00,67.0,67.0,-100.00,SSE,162,3.0,7.0,99,0.00,,,0.57,29.000000,,2013-06-16 13:11:00,
2013-06-16 08:34:00,71.0,69.0,-100.00,SSW,194,5.0,8.0,94,0.00,,,0.40,219.000000,,2013-06-16 13:34:00,
2013-06-16 08:43:00,71.0,69.0,-100.00,SSW,194,5.0,8.0,94,0.00,,,0.40,219.000000,,2013-06-16 13:43:00,
2013-06-16 08:54:00,71.0,69.0,-100.00,SSW,194,5.0,8.0,94,0.00,,,0.40,219.000000,,2013-06-16 13:54:00,
2013-06-16 09:02:00,71.0,69.0,-100.00,SSW,194,5.0,8.0,94,0.00,,,0.40,219.000000,,2013-06-16 14:02:00,
2013-06-16 09:12:00,71.0,69.0,-100.00,SSW,194,5.0,8.0,94,0.00,,,0.40,219.000000,,2013-06-16 14:12:00,
2013-06-16 09:34:00,74.0,71.0,-100.00,SSW,196,5.0,11.0,91,0.00,,,0.35,310.000000,,2013-06-16 14:34:00,
2013-06-16 09:44:00,74.0,71.0,-100.00,SSW,196,5.0,11.0,91,0.00,,,0.35,310.000000,,2013-06-16 14:44:00,
2013-06-16 09:53:00,74.0,71.0,-100.00,SSW,196,5.0,11.0,91,0.00,,,0.35,310.000000,,2013-06-16 14:53:00,
2013-06-16 10:02:00,74.0,71.0,-100.00,SSW,196,5.0,11.0,91,0.00,,,0.35,310.000000,,2013-06-16 15:02:00,
2013-06-16 10:12:00,74.0,71.0,-100.00,SSW,196,5.0,11.0,91,0.00,,,0.35,310.000000,,2013-06-16 15:12:00,
2013-06-16 10:34:00,77.0,71.0,-100.00,SSW,204,7.0,12.0,83,0.00,,,0.35,547.000000,,2013-06-16 15:34:00,
2013-06-16 10:43:00,77.0,71.0,-100.00,SSW,204,7.0,12.0,83,0.00,,,0.35,547.000000,,2013-06-16 15:43:00,
2013-06-16 10:53:00,77.0,71.0,-100.00,SSW,204,7.0,12.0,83,0.00,,,0.35,547.000000,,2013-06-16 15:53:00,
2013-06-16 11:02:00,77.0,71.0,-100.00,SSW,204,7.0,12.0,83,0.00,,,0.35,547.000000,,2013-06-16 16:02:00,
2013-06-16 11:12:00,77.0,71.0,-100.00,SSW,204,7.0,12.0,83,0.00,,,0.35,547.000000,,2013-06-16 16:12:00,
2013-06-16 11:33:00,79.0,72.0,-100.00,SW,221,9.0,15.0,78,0.00,,,0.35,638.000000,,2013-06-16 16:33:00,
2013-06-16 11:43:00,79.0,72.0,-100.00,SW,221,9.0,15.0,78,0.00,,,0.35,638.000000,,2013-06-16 16:43:00,
2013-06-16 11:53:00,79.0,72.0,-100.00,SW,221,9.0,15.0,78,0.00,,,0.35,638.000000,,2013-06-16 16:53:00,
2013-06-16 12:02:00,79.0,72.0,-100.00,SW,221,9.0,15.0,78,0.00,,,0.35,638.000000,,2013-06-16 17:02:00,
2013-06-16 12:12:00,79.0,72.0,-100.00,SW,221,9.0,15.0,78,0.00,,,0.35,638.000000,,2013-06-16 17:12:00,
2013-06-16 12:34:00,80.0,72.0,-100.00,SSW,209,7.0,13.0,76,0.00,,,0.35,644.000000,,2013-06-16 17:34:00,
2013-06-16 12:43:00,80.0,72.0,-100.00,SSW,209,7.0,13.0,76,0.00,,,0.35,644.000000,,2013-06-16 17:43:00,
2013-06-16 12:53:00,80.0,72.0,-100.00,SSW,209,7.0,13.0,76,0.00,,,0.35,644.000000,,2013-06-16 17:53:00,
2013-06-16 13:02:00,80.0,72.0,-100.00,SSW,209,7.0,13.0,76,0.00,,,0.35,644.000000,,2013-06-16 18:02:00,
2013-06-16 13:12:00,80.0,72.0,-100.00,SSW,209,7.0,13.0,76,0.00,,,0.35,644.000000,,2013-06-16 18:12:00,
2013-06-16 13:34:00,83.0,73.0,-100.00,SW,216,7.0,13.0,73,0.00,,,0.35,935.000000,,2013-06-16 18:34:00,
2013-06-16 13:43:00,83.0,73.0,-100.00,SW,216,7.0,13.0,73,0.00,,,0.35,935.000000,,2013-06-16 18:43:00,
2013-06-16 13:52:00,83.0,73.0,-100.00,SW,216,7.0,13.0,73,0.00,,,0.35,935.000000,,2013-06-16 18:52:00,
2013-06-16 14:01:00,83.0,73.0,-100.00,SW,216,7.0,13.0,73,0.00,,,0.35,935.000000,,2013-06-16 19:01:00,
2013-06-16 14:11:00,83.0,73.0,-100.00,SW,216,7.0,13.0,73,0.00,,,0.35,935.000000,,2013-06-16 19:11:00,
2013-06-16 14:34:00,85.0,74.0,-100.00,SW,226,7.0,11.0,70,0.00,,,0.35,804.000000,,2013-06-16 19:34:00,
2013-06-16 14:43:00,85.0,74.0,-100.00,SW,226,7.0,11.0,70,0.00,,,0.35,804.000000,,2013-06-16 19:43:00,
2013-06-16 14:53:00,85.0,74.0,-100.00,SW,226,7.0,11.0,70,0.00,,,0.35,804.000000,,2013-06-16 19:53:00,
2013-06-16 15:02:00,85.0,74.0,-100.00,SW,226,7.0,11.0,70,0.00,,,0.35,804.000000,,2013-06-16 20:02:00,
2013-06-16 15:11:00,85.0,74.0,-100.00,SW,226,7.0,11.0,70,0.00,,,0.35,804.000000,,2013-06-16 20:11:00,
2013-06-16 15:33:00,86.0,75.0,-100.00,West,262,5.0,11.0,69,0.00,,,0.35,733.000000,,2013-06-16 20:33:00,
2013-06-16 15:43:00,86.0,75.0,-100.00,West,262,5.0,11.0,69,0.00,,,0.35,733.000000,,2013-06-16 20:43:00,
2013-06-16 15:53:00,86.0,75.0,-100.00,West,262,5.0,11.0,69,0.00,,,0.35,733.000000,,2013-06-16 20:53:00,
2013-06-16 16:02:00,86.0,75.0,-100.00,West,262,5.0,11.0,69,0.00,,,0.35,733.000000,,2013-06-16 21:02:00,
2013-06-16 16:11:00,86.0,75.0,-100.00,West,262,5.0,11.0,69,0.00,,,0.35,733.000000,,2013-06-16 21:11:00,
2013-06-16 16:33:00,86.0,73.0,-100.00,WNW,287,4.0,11.0,65,0.00,,,0.35,640.000000,,2013-06-16 21:33:00,
2013-06-16 16:42:00,86.0,73.0,-100.00,WNW,287,4.0,11.0,65,0.00,,,0.35,640.000000,,2013-06-16 21:42:00,
2013-06-16 16:53:00,86.0,73.0,-100.00,WNW,287,4.0,11.0,65,0.00,,,0.35,640.000000,,2013-06-16 21:53:00,
2013-06-16 17:01:00,86.0,73.0,-100.00,WNW,287,4.0,11.0,65,0.00,,,0.35,640.000000,,2013-06-16 22:01:00,
2013-06-16 17:12:00,86.0,73.0,-100.00,WNW,287,4.0,11.0,65,0.00,,,0.35,640.000000,,2013-06-16 22:12:00,
2013-06-16 17:32:00,84.0,72.0,-100.00,WNW,288,4.0,8.0,68,0.00,,,0.35,340.000000,,2013-06-16 22:32:00,
2013-06-16 17:42:00,84.0,72.0,-100.00,WNW,288,4.0,8.0,68,0.00,,,0.35,340.000000,,2013-06-16 22:42:00,
2013-06-16 17:52:00,84.0,72.0,-100.00,WNW,288,4.0,8.0,68,0.00,,,0.35,340.000000,,2013-06-16 22:52:00,
2013-06-16 18:01:00,84.0,72.0,-100.00,WNW,288,4.0,8.0,68,0.00,,,0.35,340.000000,,2013-06-16 23:01:00,
2013-06-16 18:11:00,84.0,72.0,-100.00,WNW,288,4.0,8.0,68,0.00,,,0.35,340.000000,,2013-06-16 23:11:00,
2013-06-16 18:32:00,86.0,77.0,-100.00,NNW,347,3.0,8.0,75,0.00,,,0.28,454.000000,,2013-06-16 23:32:00,
2013-06-16 18:42:00,86.0,77.0,-100.00,NNW,347,3.0,8.0,75,0.00,,,0.28,454.000000,,2013-06-16 23:42:00,
2013-06-16 18:52:00,86.0,77.0,-100.00,NNW,347,3.0,8.0,75,0.00,,,0.28,454.000000,,2013-06-16 23:52:00,
2013-06-16 19:02:00,86.0,77.0,-100.00,NNW,347,3.0,8.0,75,0.00,,,0.28,454.000000,,2013-06-17 00:02:00,
2013-06-16 19:11:00,86.0,77.0,-100.00,NNW,347,3.0,8.0,75,0.00,,,0.28,454.000000,,2013-06-17 00:11:00,
2013-06-16 20:32:00,80.0,75.0,-100.00,NE,49,4.0,6.0,85,-99.99,,,0.06,64.000000,,2013-06-17 01:32:00,
2013-06-16 20:43:00,80.0,75.0,-100.00,NE,49,4.0,6.0,85,-99.99,,,0.06,64.000000,,2013-06-17 01:43:00,
2013-06-16 20:53:00,80.0,75.0,-100.00,NE,49,4.0,6.0,85,-99.99,,,0.06,64.000000,,2013-06-17 01:53:00,
2013-06-16 21:02:00,80.0,75.0,-100.00,NE,49,4.0,6.0,85,-99.99,,,0.06,64.000000,,2013-06-17 02:02:00,
2013-06-16 21:12:00,80.0,75.0,-100.00,NE,49,4.0,6.0,85,-99.99,,,0.06,64.000000,,2013-06-17 02:12:00,
2013-06-16 21:34:00,77.0,73.0,-100.00,ESE,121,5.0,10.0,87,0.05,,,0.07,8.000000,,2013-06-17 02:34:00,
2013-06-16 21:43:00,77.0,73.0,-100.00,ESE,121,5.0,10.0,87,0.05,,,0.07,8.000000,,2013-06-17 02:43:00,
2013-06-16 21:53:00,77.0,73.0,-100.00,ESE,121,5.0,10.0,87,0.05,,,0.07,8.000000,,2013-06-17 02:53:00,
2013-06-16 22:02:00,77.0,73.0,-100.00,ESE,121,5.0,10.0,87,0.05,,,0.07,8.000000,,2013-06-17 03:02:00,
2013-06-16 22:12:00,77.0,73.0,-100.00,ESE,121,5.0,10.0,87,0.05,,,0.07,8.000000,,2013-06-17 03:12:00,
2013-06-16 22:33:00,68.0,67.0,-100.00,SSE,159,9.0,18.0,96,1.25,,,1.32,0.000000,,2013-06-17 03:33:00,
2013-06-16 22:44:00,68.0,67.0,-100.00,SSE,159,9.0,18.0,96,1.25,,,1.32,0.000000,,2013-06-17 03:44:00,
2013-06-16 22:54:00,68.0,67.0,-100.00,SSE,159,9.0,18.0,96,1.25,,,1.32,0.000000,,2013-06-17 03:54:00,
2013-06-16 23:02:00,68.0,67.0,-100.00,SSE,159,9.0,18.0,96,1.25,,,1.32,0.000000,,2013-06-17 04:02:00,
2013-06-16 23:12:00,68.0,67.0,-100.00,SSE,159,9.0,18.0,96,1.25,,,1.32,0.000000,,2013-06-17 04:12:00,
2013-06-16 23:34:00,67.0,65.0,-100.00,SE,137,4.0,12.0,93,0.16,,,1.47,0.000000,,2013-06-17 04:34:00,
2013-06-16 23:43:00,67.0,65.0,-100.00,SE,137,4.0,12.0,93,0.16,,,1.47,0.000000,,2013-06-17 04:43:00,
2013-06-16 23:53:00,67.0,65.0,-100.00,SE,137,4.0,12.0,93,0.16,,,1.47,0.000000,,2013-06-17 04:53:00,